Fredericton, New Brunswick

7:57 PM AST on February 17, 2018 (GMT -0400)
Greater Fredericton Airport

Weather History for CYFC - October, 2013

Change the Weather History Date:

Wednesday, October 30, 2013

  Actual Average Record
Temperature  
Mean Temperature 31 °F -  
Max Temperature 44 °F 42 °F 66 °F (2017)
Min Temperature 18 °F 26 °F 18 °F (2013)
Degree Days  
Heating Degree Days 34    
Moisture  
Dew Point 21 °F    
Average Humidity 85    
Maximum Humidity 100    
Minimum Humidity 22    
Precipitation  
Precipitation 0.00 in 0.15 in - ()
Sea Level Pressure  
Sea Level Pressure 30.26 in    
Wind  
Wind Speed 3 mph ()    
Max Wind Speed 9 mph    
Max Gust Speed -    
Visibility 5.1 miles    
Events Fog    
Averages and records for this station are not official NWS values.
T = Trace of Precipitation, MM = Missing Value Source: Averaged Metar Reports

Daily Weather History Graph

Daily Weather History Graph

Search for Another Location

Airport or City:

Trip Planner

Search our weather history database for the weather conditions in past years. The results will help you decide how hot, cold, wet, or windy it might be!

Date:

Astronomy

Oct. 30, 2013 Rise Set
Actual Time 8:03 AM ADT 6:15 PM ADT
Civil Twilight 7:32 AM ADT 6:45 PM ADT
Nautical Twilight 6:57 AM ADT 7:21 PM ADT
Astronomical Twilight 6:23 AM ADT 7:55 PM ADT
Moon 3:36 AM ADT (10/30) 4:09 PM ADT (10/30)
Length of Visible Light 11h 13m
Length of Day
10h 11m
Waning Crescent, 17% of the Moon is Illuminated
Oct 30
Waning Crescent
Nov 3
New
Nov 10
First Quarter
Nov 17
Full
Nov 25
Last Quarter

Hourly Weather History & Observations

Time (ADT) Temp. Windchill Dew Point Humidity Pressure Visibility Wind Dir Wind Speed Gust Speed Precip Events Conditions
12:00 AM 24.8 °F - 23.0 °F 93% 30.38 in 9.0 mi Calm Calm - N/A   Clear
1:00 AM 23.0 °F 17.0 °F 21.2 °F 93% 30.35 in 9.0 mi SSW 4.6 mph - N/A   Clear
2:00 AM 23.0 °F 18.4 °F 21.2 °F 93% 30.35 in 9.0 mi South 3.5 mph - N/A   Clear
3:00 AM 22 °F - 21 °F 93% 30.34 in 10 mi SSW 3.5 mph - -  
3:00 AM 21.2 °F 14.9 °F 21.2 °F 100% 30.34 in 9.0 mi SSW 4.6 mph - N/A   Clear
4:00 AM 19.4 °F 12.8 °F 19.4 °F 100% 30.32 in 9.0 mi SSW 4.6 mph - N/A   Clear
5:00 AM 19.4 °F - 19.4 °F 100% 30.31 in 9.0 mi SSW 2.3 mph - N/A   Clear
6:00 AM 19.4 °F - 17.6 °F 93% 30.30 in 9.0 mi Calm Calm - N/A   Clear
6:43 AM 19.4 °F 14.3 °F 17.6 °F 93% 30.30 in 9.0 mi NW 3.5 mph - N/A   Partly Cloudy
6:44 AM 19.4 °F 12.8 °F 17.6 °F 93% 30.30 in 4.0 mi NW 4.6 mph - N/A   Partly Cloudy
6:45 AM 19.4 °F 12.8 °F 19.4 °F 100% 30.30 in 1.5 mi NW 4.6 mph - N/A   Partly Cloudy
6:47 AM 19.4 °F 12.8 °F 19.4 °F 100% 30.30 in 0.5 mi NW 4.6 mph - N/A Fog Light Freezing Fog
6:48 AM 19.4 °F 12.8 °F 19.4 °F 100% 30.30 in 0.4 mi NW 4.6 mph - N/A Fog Light Freezing Fog
6:52 AM 21.2 °F 14.9 °F 21.2 °F 100% 30.30 in 0.2 mi NW 4.6 mph - N/A Fog Light Freezing Fog
7:00 AM 21.2 °F 16.4 °F 21.2 °F 100% 30.30 in 0.1 mi NW 3.5 mph - N/A Fog Light Freezing Fog
7:28 AM 23.0 °F - 23.0 °F 100% 30.29 in 0.4 mi Variable 2.3 mph - N/A Fog Light Freezing Fog
7:46 AM 23.0 °F - 21.2 °F 93% 30.29 in 0.4 mi WNW 2.3 mph - N/A Fog Light Freezing Fog
7:49 AM 21.2 °F - 21.2 °F 100% 30.29 in 0.4 mi Calm Calm - N/A Fog Light Freezing Fog
8:00 AM 21.2 °F 16.4 °F 21.2 °F 100% 30.29 in 0.1 mi SSW 3.5 mph - N/A Fog Light Freezing Fog
8:28 AM 21.2 °F 16.4 °F 21.2 °F 100% 30.29 in 0.1 mi SSW 3.5 mph - N/A Fog Light Freezing Fog
9:00 AM 23 °F - 22 °F 96% 30.29 in 0 mi SW 3.5 mph - - Fog Fog
9:00 AM 23.0 °F 18.4 °F 23.0 °F 100% 30.29 in 0.5 mi SW 3.5 mph - N/A Fog Light Freezing Fog
9:02 AM 23.0 °F 18.4 °F 23.0 °F 100% 30.29 in 0.6 mi SSW 3.5 mph - N/A   Mist
9:07 AM 23.0 °F - 23.0 °F 100% 30.29 in 2.5 mi SW 2.3 mph - N/A   Overcast
9:08 AM 23.0 °F 18.4 °F 23.0 °F 100% 30.29 in 3.0 mi SW 3.5 mph - N/A   Overcast
9:31 AM 23.0 °F 18.4 °F 23.0 °F 100% 30.29 in 2.0 mi Variable 3.5 mph - N/A   Overcast
9:32 AM 23.0 °F 18.4 °F 23.0 °F 100% 30.29 in 1.5 mi Variable 3.5 mph - N/A   Overcast
9:37 AM 23.0 °F 18.4 °F 23.0 °F 100% 30.29 in 0.5 mi SSW 3.5 mph - N/A Fog Light Freezing Fog
9:38 AM 23.0 °F 18.4 °F 23.0 °F 100% 30.28 in 0.4 mi SSW 3.5 mph - N/A Fog Light Freezing Fog
9:56 AM 24.8 °F 20.5 °F 23.0 °F 93% 30.29 in 0.5 mi WSW 3.5 mph - N/A Fog Light Freezing Fog
9:57 AM 24.8 °F 20.5 °F 24.8 °F 100% 30.28 in 0.6 mi WSW 3.5 mph - N/A   Mist
10:00 AM 24.8 °F - 24.8 °F 100% 30.28 in 1.2 mi Variable 2.3 mph - N/A   Mist
10:01 AM 24.8 °F - 24.8 °F 100% 30.28 in 2.0 mi Variable 2.3 mph - N/A   Overcast
10:02 AM 24.8 °F 20.5 °F 24.8 °F 100% 30.28 in 3.0 mi SW 3.5 mph - N/A   Overcast
10:04 AM 24.8 °F 20.5 °F 24.8 °F 100% 30.28 in 6.0 mi SW 3.5 mph - N/A   Overcast
10:16 AM 26.6 °F 21.2 °F 24.8 °F 93% 30.28 in 9.0 mi SSW 4.6 mph - N/A   Scattered Clouds
11:00 AM 28.4 °F 24.6 °F 28.4 °F 100% 30.26 in 9.0 mi SSW 3.5 mph - N/A   Clear
12:00 PM 35.6 °F 31.7 °F 26.6 °F 70% 30.23 in 9.0 mi South 4.6 mph - N/A   Clear
1:00 PM 39.2 °F 33.0 °F 17.6 °F 42% 30.21 in 9.0 mi West 9.2 mph - N/A   Partly Cloudy
2:00 PM 41.0 °F 36.4 °F 19.4 °F 42% 30.17 in 9.0 mi WSW 6.9 mph - N/A   Clear
3:00 PM 43 °F - 17 °F 22% 30.14 in 10 mi West 4.6 mph - -  
3:00 PM 42.8 °F 39.3 °F 17.6 °F 36% 30.14 in 9.0 mi West 5.8 mph - N/A   Clear
4:00 PM 42.8 °F 38.0 °F 14.0 °F 31% 30.13 in 9.0 mi WSW 8.1 mph - N/A   Clear
5:00 PM 42.8 °F 38.6 °F 12.2 °F 29% 30.13 in 9.0 mi West 6.9 mph - N/A   Clear
6:00 PM 39.2 °F 35.9 °F 12.2 °F 33% 30.13 in 9.0 mi WNW 4.6 mph - N/A   Clear
7:00 PM 30.2 °F 26.7 °F 19.4 °F 64% 30.14 in 9.0 mi SW 3.5 mph - N/A   Clear
8:00 PM 28.4 °F 23.3 °F 19.4 °F 69% 30.15 in 9.0 mi South 4.6 mph - N/A   Clear
9:00 PM 28 °F - 20 °F 62% 30.15 in 10 mi SSW 5.8 mph - -  
9:00 PM 28.4 °F 22.2 °F 19.4 °F 69% 30.15 in 9.0 mi South 5.8 mph - N/A   Clear
10:00 PM 28.4 °F 24.6 °F 19.4 °F 69% 30.15 in 9.0 mi SW 3.5 mph - N/A   Clear
11:00 PM 26.6 °F 20.0 °F 19.4 °F 74% 30.16 in 9.0 mi SW 5.8 mph - N/A   Clear